DELTA 1 DEB

Satellite information

Favourite Embed

Satellite Type and Status

DEBRISIN ORBIT

Key statistics

Satellite DELTA 1 DEB at a glance.

Uptime

19450

Days in orbit

Revolutions

≈ 13.8

Per day

Orbit

SSO

Sun Synchronous Orbit

Inclination

97.8

Latest

Satellite identification and parameters

Extended collection of information and parameters for DELTA 1 DEB.

Object identification

Identified? True

Debris? True

Object name: DELTA 1 DEB

International designator: 1972-058BK

Object number (NORAD): 7893

Object ID (CCSDS): 7893

Country: UNITED STATES OF AMERICA (US)

Current information (Y/N): Y

RCS size: MEDIUM

Orbital parameters

Period: 104.502 minutes

Inclination: 97.8124 deg

SMA: 7349.266 km

Apoapsis: 1259.682 km

Periapsis: 682.579 km

RAAN: 19.241 deg

Eccentricy: 0.0392626

Argument of periapsis: 298.3452 deg

Mean anomaly: 57.8631 deg

Mean motion: 13.77960698 rev/day

Mean motion (dot): 0.00000697 rev/day2

B* drag term: 0.00041216652 1/REarth

Two-line elements (TLE)

Creation date: Oct. 23, 2025, 2:46 a.m.

Reference frame: TEME

Reference center: EARTH

Epoch: Oct. 22, 2025, 9:43 p.m. UTC

TLE line 0: 0 DELTA 1 DEB

TLE line 1: 1 07893U 72058BK 25295.90504736 .00000697 00000-0 41217-3 0 9996

TLE line 2: 2 07893 97.8124 19.2410 0392626 298.3452 57.8631 13.77960698499174

Live tracking on map

Real-time ground track for satellite DELTA 1 DEB.

In-orbit conjunctions

A list of the most updated potential collisions computed for object DELTA 1 DEB.

Target Orbit TCA Probability of collision Miss distance Type
CZ-6A DEB LEO 2025-01-16 21:04:43 0.0001503785 320.0 (m) DEBRIS
CZ-6A DEB LEO 2024-12-22 11:36:54 0.0001243998 957.0 (m) DEBRIS

Associated space launch

Earth observation satellite

DELTA 1 DEB was lifted into orbit during the mission ‘Delta 0900 | Landsat 1’, on board a Delta 0900 space rocket.

The launch took place on July 23, 1972, 6:06 p.m. from Space Launch Complex 2W.

For more information about the launch, click the button.

Launch to space Delta 0900 | Landsat 1
Delta 0900 | Landsat 1

Agency: N/A

Status: Launch Successful

Launch date: July 23, 1972, 6:06 p.m. UTC

Rocket: Delta 0900

Launch pad: Space Launch Complex 2W

Location: Vandenberg SFB, CA, USA

...

Latest news about this satellite

There are no fresh news available about this satellite. Check back as we update our databases every day.


Newsletter sign-up

Weekly statistics, charts and insights to help you stay on top of the space industry.